Voltar ao catálogo

FENGYUN 1C DEB

AtivoSSO
NORAD 30829·DEBRIS·🇨🇳 China

Lançado May 10, 1999 de Taiyuan Satellite Launch Center

Loading…

Próximas Passagens (próximas 24 horas)

TLE

AtualizadoSource: Space-Track

Época: Sep 14, 2026, 10:42 UTC

1 30829U 99025AVP 26257.44630022  .00000282  00000-0  18683-3 0  9991
2 30829  98.7953 248.1517 0034415 275.6757  84.0489 14.08997044  3113

Acompanhe FENGYUN 1C DEB em tempo real com AllMySat

Download on the App Store